This demonstration page uses our WeatherBlox Daily Observations layout. Learn more.

Left ArrowRight Arrow

39.51506, -84.39828

Hourly Observations for March 22, 2015

Temp ( °F °C ) Dew Point ( °F °C ) Humidity (%) Winds ( mph kmh ) Pressure ( in mb ) Visibility ( mi km ) Precip ( " mm )
12:15 am 00:15 Clear 44 6.8 24 -4.2 46 46 N 7 11 30.21 1023 10 16 N/A
12:35 am 00:35 Clear 43 6.2 23 -4.8 46 46 N 7 11 30.21 1023 10 16 N/A
12:55 am 00:55 Clear 42 5.7 23 -5.2 46 46 N 8 13 30.21 1023 10 16 N/A
1:15 am 01:15 Clear 42 5.5 22 -5.4 46 46 N 6 9 30.21 1023 10 16 N/A
1:35 am 01:35 Clear 40 4.7 22 -5.8 47 47 NNE 7 11 30.24 1024 10 16 N/A
1:55 am 01:55 Clear 40 4.7 21 -6.1 46 46 NNE 7 11 30.21 1023 10 16 N/A
2:15 am 02:15 Clear 40 4.7 20 -6.5 44 44 NNE 7 11 30.24 1024 10 16 N/A
2:35 am 02:35 Clear 40 4.7 20 -6.6 44 44 NNE 7 11 30.24 1024 10 16 N/A
2:55 am 02:55 Clear 40 4.3 20 -6.9 44 44 NNE 7 11 30.21 1023 10 16 N/A
3:15 am 03:15 Clear 39 4 19 -7.1 45 45 NNE 8 13 30.21 1023 10 16 N/A
3:35 am 03:35 Clear 39 4 20 -6.9 45 45 NNE 6 9 30.21 1023 10 16 N/A
3:55 am 03:55 Clear 39 4 20 -6.8 46 46 NNE 5 7 30.21 1023 10 16 N/A
4:15 am 04:15 Clear 39 4 20 -6.7 46 46 NNE 5 7 30.24 1024 10 16 N/A
4:35 am 04:35 Clear 39 4 19 -7 45 45 N N/A 30.21 1023 10 16 N/A
4:55 am 04:55 Clear 37 3 20 -6.9 49 49 N N/A 30.24 1024 10 16 N/A
5:15 am 05:15 Clear 37 2.6 19 -7.3 48 48 N N/A 30.24 1024 10 16 N/A
5:35 am 05:35 Clear 37 2.6 24 -4.7 59 59 N 3 6 30.24 1024 10 16 N/A
5:55 am 05:55 Clear 34 1.2 22 -5.5 61 61 NNE 3 6 30.24 1024 10 16 N/A
6:15 am 06:15 Clear 34 1.2 24 -4.3 67 67 NNE 3 6 30.24 1024 10 16 N/A
6:35 am 06:35 Clear 34 1.2 24 -4.7 65 65 NNE 6 9 30.24 1024 10 16 N/A
6:55 am 06:55 Clear 34 1.2 23 -5 64 64 NNE 5 7 30.24 1024 10 16 N/A
7:15 am 07:15 Clear 34 1.2 23 -4.8 65 65 NNE 7 11 30.24 1024 10 16 N/A
7:35 am 07:35 Clear 34 1.2 24 -4.5 66 66 NNE 7 11 30.27 1025 10 16 N/A
7:55 am 07:55 Sunny 34 1.2 25 -3.8 70 70 NE 6 9 30.27 1025 10 16 N/A
8:15 am 08:15 Sunny 35 1.8 27 -2.6 73 73 NNE 7 11 30.27 1025 10 16 N/A
8:35 am 08:35 Sunny 37 2.6 29 -1.7 74 74 NE 9 15 30.27 1025 10 16 N/A
8:55 am 08:55 Sunny 37 2.6 29 -1.8 73 73 ENE 9 15 30.27 1025 10 16 N/A
9:15 am 09:15 Sunny 39 4 29 -1.7 67 67 ENE 13 20 30.27 1025 10 16 N/A
9:35 am 09:35 Sunny 39 4 27 -2.9 61 61 NE 13 20 30.27 1025 10 16 N/A
9:55 am 09:55 Sunny 40 4.2 24 -4.6 53 53 ENE 13 20 30.27 1025 10 16 N/A
10:15 am 10:15 Sunny 40 4.7 21 -5.9 47 47 ENE 14 22 30.27 1025 10 16 N/A
10:35 am 10:35 Sunny 40 4.7 19 -7.3 42 42 E 12 19 30.30 1026 10 16 N/A
10:55 am 10:55 Sunny 42 5.5 17 -8.4 36 36 ENE 14 22 30.30 1026 10 16 N/A
11:15 am 11:15 Sunny 42 5.5 17 -8.4 36 36 ENE 8 13 30.30 1026 10 16 N/A
11:35 am 11:35 Sunny 43 5.9 18 -8 36 36 ENE 8 13 30.30 1026 10 16 N/A
11:55 am 11:55 Sunny 43 6.1 18 -8 36 36 ENE 10 17 30.30 1026 10 16 N/A
12:15 pm 12:15 Sunny 44 6.8 17 -8.4 33 33 NE 9 15 30.24 1024 10 16 N/A
12:35 pm 12:35 Sunny 47 8.1 19 -7.5 33 33 NE 7 11 30.24 1024 10 16 N/A
12:55 pm 12:55 Sunny 47 8.2 18 -7.9 31 31 ENE 12 19 30.24 1024 10 16 N/A
1:15 pm 13:15 Sunny 48 9.1 19 -7.5 30 30 NNE 10 17 30.24 1024 10 16 N/A
1:35 pm 13:35 Sunny 49 9.6 18 -8 28 28 NE 7 11 30.24 1024 10 16 N/A
1:55 pm 13:55 Sunny 49 9.6 15 -9.4 25 25 NE 10 17 30.24 1024 10 16 N/A
2:15 pm 14:15 Sunny 49 9.6 15 -9.2 26 26 ENE 8 13 30.21 1023 10 16 N/A
2:35 pm 14:35 Sunny 49 9.6 15 -9.7 25 25 ENE 9 15 30.21 1023 10 16 N/A
2:55 pm 14:55 Sunny 50 10.1 13 -10.3 23 23 ENE 8 13 30.21 1023 10 16 N/A
3:15 pm 15:15 Hazy 51 10.8 12 -10.9 21 21 ENE 9 15 30.18 1022 3 5 N/A
3:35 pm 15:35 Sunny 52 11 12 -10.9 21 21 ENE 7 11 30.18 1022 10 16 N/A
3:55 pm 15:55 Sunny 51 10.3 11 -11.6 20 20 ENE 5 7 30.18 1022 10 16 N/A
4:15 pm 16:15 Sunny 53 11.5 13 -10.5 20 20 NE 10 17 30.18 1022 10 16 N/A
4:35 pm 16:35 Sunny 52 11 13 -10.8 21 21 NE 10 17 30.18 1022 10 16 N/A
4:55 pm 16:55 Sunny 54 12.3 14 -9.8 21 21 NNE 10 17 30.18 1022 10 16 N/A
5:15 pm 17:15 Sunny 52 11 11 -11.6 19 19 NNE 10 17 30.18 1022 10 16 N/A
5:35 pm 17:35 Sunny 50 10.2 10 -12.2 19 19 NE 8 13 30.18 1022 10 16 N/A
5:55 pm 17:55 Sunny 50 10.2 10 -12 20 20 NE 9 15 30.18 1022 10 16 N/A
6:15 pm 18:15 Sunny 49 9.6 9 -13 19 19 NNE 10 17 30.18 1022 10 16 N/A
6:35 pm 18:35 Sunny 49 9.6 9 -12.6 20 20 NNE 9 15 30.18 1022 10 16 N/A
6:55 pm 18:55 Sunny 49 9.6 10 -12.1 20 20 NE 10 17 30.18 1022 10 16 N/A
7:15 pm 19:15 Sunny 49 9.6 12 -11 22 22 NE 9 15 30.18 1022 10 16 N/A
7:35 pm 19:35 Sunny 49 9.6 16 -9 26 26 ENE 10 17 30.18 1022 10 16 N/A
7:55 pm 19:55 Clear 47 8.2 15 -9.7 27 27 ENE 13 20 30.18 1022 10 16 N/A
8:15 pm 20:15 Clear 44 6.8 13 -10.8 28 28 ENE 9 15 30.18 1022 10 16 N/A
8:35 pm 20:35 Clear 43 6 15 -9.4 32 32 ENE 7 11 30.18 1022 10 16 N/A
8:55 pm 20:55 Clear 43 5.9 16 -9 34 34 ENE 12 19 30.18 1022 10 16 N/A
9:15 pm 21:15 Clear 42 5.6 16 -8.8 35 35 ENE 10 17 30.18 1022 10 16 N/A
9:35 pm 21:35 Clear 41 4.8 18 -8 39 39 ENE 8 13 30.24 1024 10 16 N/A
9:55 pm 21:55 Clear 41 5.2 15 -9.2 35 35 NE 10 17 30.24 1024 10 16 N/A
10:15 pm 22:15 Clear 40 4.7 15 -9.3 36 36 NE 8 13 30.24 1024 10 16 N/A
10:35 pm 22:35 Clear 40 4.5 17 -8.4 39 39 NE 7 11 30.24 1024 10 16 N/A
10:55 pm 22:55 Clear 39 4 18 -7.8 42 42 NNE 7 11 30.24 1024 10 16 N/A
11:15 pm 23:15 Clear 39 4 19 -7.2 44 44 NNE 6 9 30.24 1024 10 16 N/A
11:35 pm 23:35 Partly Cloudy 39 4 19 -7 45 45 NNE 7 11 30.24 1024 10 16 N/A
11:55 pm 23:55 Partly Cloudy 39 4 20 -6.6 46 46 NE 8 13 30.24 1024 10 16 N/A

Powered by AerisWeather